Alma, MI

11:35 PM EDT on May 22, 2017 (GMT -0400)
Gratiot Community

Weather History for KAMN - May, 2013

Change the Weather History Date:

Sunday, May 19, 2013

  Actual Average Record
Temperature  
Mean Temperature 66 °F -  
Max Temperature 84 °F 70 °F 92 °F (1977)
Min Temperature 48 °F 47 °F 26 °F (2002)
Cooling Degree Days 1    
Growing Degree Days 16 (Base 50)    
Moisture  
Dew Point 53 °F    
Average Humidity 62    
Maximum Humidity 96    
Minimum Humidity 36    
Precipitation  
Precipitation 0.00 in - - ()
Sea Level Pressure  
Sea Level Pressure 29.97 in    
Wind  
Wind Speed 2 mph (SE)    
Max Wind Speed 10 mph    
Max Gust Speed -    
Visibility 10 miles    
Events      
Averages and records for this station are not official NWS values.
T = Trace of Precipitation, MM = Missing Value Source: NWS Daily Summary

Daily Weather History Graph

Daily Weather History Graph

Search for Another Location

Airport or City:

Trip Planner

Search our weather history database for the weather conditions in past years. The results will help you decide how hot, cold, wet, or windy it might be!

Date:

Astronomy

May. 19, 2013 Rise Set
Actual Time 6:10 AM EDT 9:00 PM EDT
Civil Twilight 5:37 AM EDT 9:34 PM EDT
Nautical Twilight 4:54 AM EDT 10:16 PM EDT
Astronomical Twilight 4:05 AM EDT 11:05 PM EDT
Moon 2:54 PM EDT (5/19) 2:44 AM EDT (5/19)
Length of Visible Light 15h 57m
Length of Day
14h 50m
Waxing Gibbous, 65% of the Moon is Illuminated
May 19
Waxing Gibbous
May 25
Full
May 31
Last Quarter
Jun 8
New
Jun 16
First Quarter

Hourly Weather History & Observations

Time (EDT) Temp. Heat Index Dew Point Humidity Pressure Visibility Wind Dir Wind Speed Gust Speed Precip Events Conditions
12:14 AM 57.0 °F - 49.6 °F 76% 30.05 in 10.0 mi Calm Calm - N/A   Clear
12:34 AM 57.2 °F - 49.8 °F 76% 30.05 in 10.0 mi Calm Calm - N/A   Clear
12:54 AM 55.0 °F - 49.1 °F 80% 30.05 in 10.0 mi Calm Calm - N/A   Clear
1:14 AM 53.6 °F - 50.0 °F 88% 30.05 in 10.0 mi North - - N/A   Clear
1:34 AM 52.7 °F - 49.1 °F 88% 30.04 in 10.0 mi North 5.8 mph - N/A   Clear
1:54 AM 53.2 °F - 49.8 °F 88% 30.03 in 10.0 mi North - - N/A   Clear
2:14 AM 53.2 °F - 49.3 °F 86% 30.02 in 10.0 mi North - - N/A   Clear
2:34 AM 53.1 °F - 49.5 °F 88% 30.02 in 10.0 mi North - - N/A   Clear
2:53 AM 52.2 °F - 49.1 °F 89% 30.02 in 10.0 mi North 5.8 mph - N/A   Clear
3:14 AM 50.4 °F - 48.4 °F 93% 30.03 in 10.0 mi NNW 3.5 mph - N/A   Clear
3:33 AM 51.1 °F - 49.3 °F 94% 30.02 in 10.0 mi Calm Calm - N/A   Clear
3:54 AM 50.9 °F - 49.1 °F 94% 30.02 in 10.0 mi Calm Calm - N/A   Clear
4:13 AM 50.4 °F - 49.1 °F 95% 30.03 in 10.0 mi Calm Calm - N/A   Clear
4:34 AM 50.2 °F - 48.7 °F 95% 30.03 in 10.0 mi Calm Calm - N/A   Clear
4:54 AM 49.6 °F - 48.2 °F 95% 30.03 in 10.0 mi Calm Calm - N/A   Clear
5:14 AM 49.8 °F - 48.2 °F 94% 30.03 in 10.0 mi Calm Calm - N/A   Clear
5:34 AM 49.6 °F - 48.2 °F 95% 30.03 in 10.0 mi Calm Calm - N/A   Clear
5:54 AM 48.0 °F - 46.6 °F 95% 30.03 in 10.0 mi Calm Calm - N/A   Clear
6:13 AM 49.3 °F - 48.2 °F 96% 30.03 in 10.0 mi Calm Calm - N/A   Clear
6:34 AM 49.5 °F - 48.0 °F 95% 30.03 in 10.0 mi Calm Calm - N/A   Clear
6:54 AM 50.2 °F - 48.6 °F 94% 30.03 in 10.0 mi Calm Calm - N/A   Clear
7:14 AM 51.6 °F - 50.0 °F 94% 30.03 in 10.0 mi Calm Calm - N/A   Clear
7:34 AM 54.5 °F - 51.6 °F 90% 30.03 in 10.0 mi Calm Calm - N/A   Clear
8:14 AM 59.5 °F - 50.9 °F 73% 30.02 in 10.0 mi North - - N/A   Clear
8:34 AM 62.2 °F - 50.2 °F 65% 30.02 in 10.0 mi Calm Calm - N/A   Clear
8:53 AM 63.7 °F - 49.8 °F 61% 30.03 in 10.0 mi ESE 3.5 mph - N/A   Clear
9:14 AM 65.3 °F - 48.6 °F 55% 30.03 in 10.0 mi Calm Calm - N/A   Clear
9:34 AM 66.4 °F - 48.9 °F 53% 30.02 in 10.0 mi North - - N/A   Clear
9:54 AM 68.4 °F - 49.6 °F 51% 30.02 in 10.0 mi Calm Calm - N/A   Clear
10:14 AM 69.8 °F - 49.5 °F 48% 30.03 in 10.0 mi Calm Calm - N/A   Clear
10:54 AM 72.7 °F - 50.7 °F 46% 30.01 in 10.0 mi Calm Calm - N/A   Clear
11:14 AM 74.7 °F - 50.5 °F 43% 30.01 in 10.0 mi Calm Calm - N/A   Clear
11:34 AM 76.1 °F - 51.4 °F 42% 30.01 in 10.0 mi Calm Calm - N/A   Clear
11:54 AM 77.2 °F - 53.8 °F 44% 30.00 in 10.0 mi Calm Calm - N/A   Clear
12:14 PM 77.5 °F - 54.0 °F 44% 29.99 in 10.0 mi Calm Calm - N/A   Clear
12:34 PM 79.5 °F - 55.9 °F 44% 29.98 in 10.0 mi Calm Calm - N/A   Clear
12:54 PM 79.5 °F - 55.8 °F 44% 29.97 in 10.0 mi Calm Calm - N/A   Clear
1:14 PM 80.1 °F 80.3 °F 56.3 °F 44% 29.96 in 10.0 mi SSE 4.6 mph - N/A   Clear
1:34 PM 80.6 °F 80.5 °F 55.4 °F 42% 29.95 in 10.0 mi SSE 3.5 mph - N/A   Clear
1:54 PM 81.5 °F 81.3 °F 56.7 °F 42% 29.95 in 10.0 mi SSW 8.1 mph - N/A   Scattered Clouds
2:14 PM 82.4 °F 82.2 °F 57.6 °F 43% 29.95 in 10.0 mi SW 4.6 mph - N/A   Scattered Clouds
2:34 PM 83.1 °F 82.6 °F 57.4 °F 41% 29.96 in 10.0 mi WSW 5.8 mph - N/A   Scattered Clouds
3:14 PM 83.3 °F 82.5 °F 56.1 °F 39% 29.94 in 10.0 mi Calm Calm - N/A   Scattered Clouds
3:35 PM 81.5 °F 80.9 °F 54.5 °F 39% 29.93 in 10.0 mi Calm Calm - N/A   Scattered Clouds
4:14 PM 82.6 °F 81.8 °F 55.2 °F 39% 29.91 in 10.0 mi Calm Calm - N/A   Scattered Clouds
4:34 PM 83.7 °F 82.5 °F 54.5 °F 37% 29.90 in 10.0 mi SE 4.6 mph - N/A   Scattered Clouds
4:55 PM 83.7 °F 82.5 °F 55.0 °F 37% 29.90 in 10.0 mi ESE 4.6 mph - N/A   Scattered Clouds
5:14 PM 83.5 °F 82.2 °F 54.0 °F 36% 29.89 in 10.0 mi SE 4.6 mph - N/A   Clear
5:34 PM 84.0 °F 82.9 °F 54.9 °F 37% 29.88 in 10.0 mi SE 3.5 mph - N/A   Clear
5:54 PM 83.7 °F 82.4 °F 54.1 °F 36% 29.88 in 10.0 mi North - - N/A   Clear
6:14 PM 83.1 °F 82.2 °F 55.2 °F 38% 29.88 in 10.0 mi SE 8.1 mph - N/A   Clear
6:34 PM 83.3 °F 82.3 °F 54.9 °F 38% 29.88 in 10.0 mi SE 10.4 mph - N/A   Clear
6:54 PM 82.6 °F 82.0 °F 55.9 °F 40% 29.88 in 10.0 mi SE 8.1 mph - N/A   Clear
7:14 PM 82.4 °F 81.9 °F 56.5 °F 41% 29.88 in 10.0 mi South 8.1 mph - N/A   Clear
7:34 PM 81.5 °F 81.4 °F 57.0 °F 43% 29.88 in 10.0 mi North - - N/A   Clear
7:54 PM 81.7 °F 81.5 °F 57.2 °F 43% 29.87 in 10.0 mi SSE 3.5 mph - N/A   Clear
8:14 PM 81.0 °F 81.1 °F 57.6 °F 45% 29.87 in 10.0 mi SE 3.5 mph - N/A   Clear
8:34 PM 79.0 °F - 59.0 °F 50% 29.87 in 10.0 mi North - - N/A   Clear
8:54 PM 76.8 °F - 59.0 °F 54% 29.87 in 10.0 mi North - - N/A   Clear
9:14 PM 74.7 °F - 59.2 °F 58% 29.87 in 10.0 mi East 4.6 mph - N/A   Clear
9:34 PM 74.3 °F - 59.0 °F 59% 29.87 in 10.0 mi Calm Calm - N/A   Clear
9:54 PM 73.4 °F - 58.6 °F 60% 29.88 in 10.0 mi North - - N/A   Clear
10:14 PM 72.3 °F - 59.0 °F 63% 29.88 in 10.0 mi North - - N/A   Clear
10:34 PM 72.9 °F - 58.3 °F 60% 29.89 in 10.0 mi North - - N/A   Clear
10:54 PM 72.5 °F - 58.3 °F 61% 29.89 in 10.0 mi Calm Calm - N/A   Clear
11:15 PM 71.8 °F - 58.1 °F 62% 29.90 in 10.0 mi Calm Calm - N/A   Clear
11:34 PM 70.7 °F - 58.5 °F 65% 29.90 in 10.0 mi SSE 3.5 mph - N/A   Clear
11:54 PM 70.9 °F - 59.0 °F 66% 29.90 in 10.0 mi SSE 3.5 mph - N/A   Clear